This is the latest recevied weather packets stored in our database for station/object K3TLB-13. If no packets are shown the sender has not sent any weather packets the latest 1 day(s).
| Time | Temp. | Humidity | Pressure | Rain* | Wind** | Luminosity | Snow |
|---|---|---|---|---|---|---|---|
| 1778025841 | 23.89° C | 35% | 1007.9 hPa | 0 mm | - | - | - |
| 1778023147 | 25° C | 35% | 1007.8 hPa | 0 mm | - | - | - |
| 1778020441 | 25.56° C | 33% | 1007.7 hPa | 0 mm | - | - | - |
| 1778020141 | 25.56° C | 33% | 1007.6 hPa | 0 mm | - | - | - |
| 1778019541 | 25.56° C | 34% | 1007.7 hPa | 0 mm | - | - | - |
| 1778018941 | 26.11° C | 33% | 1007.7 hPa | 0 mm | - | - | - |
| 1778018641 | 26.11° C | 34% | 1007.8 hPa | 0 mm | - | - | - |
| 1778018341 | 26.11° C | 33% | 1007.7 hPa | 0 mm | - | - | - |
| 1778018041 | 26.67° C | 33% | 1007.7 hPa | 0 mm | - | - | - |
| 1778017441 | 27.22° C | 33% | 1007.7 hPa | 0 mm | - | - | - |
| 1778017141 | 27.22° C | 34% | 1007.6 hPa | 0 mm | - | - | - |
| 1778016841 | 27.22° C | 34% | 1007.5 hPa | 0 mm | - | - | - |
| 1778015941 | 26.67° C | 34% | 1007.4 hPa | 0 mm | - | - | - |
| 1778015641 | 26.67° C | 34% | 1007.4 hPa | 0 mm | - | - | - |
| 1778015041 | 27.22° C | 34% | 1007.5 hPa | 0 mm | - | - | - |
| 1778014741 | 27.22° C | 34% | 1007.4 hPa | 0 mm | - | - | - |
| 1778014441 | 27.78° C | 34% | 1007.5 hPa | 0 mm | - | - | - |
| 1778013241 | 26.67° C | 35% | 1007.6 hPa | 0 mm | - | - | - |
| 1778010241 | 26.67° C | 34% | 1008 hPa | 0 mm | - | - | - |
| 1778009041 | 26.67° C | 34% | 1008.3 hPa | 0 mm | - | - | - |
| 1778008741 | 26.67° C | 35% | 1008.3 hPa | 0 mm | - | - | - |
| 1778007841 | 26.11° C | 36% | 1008.4 hPa | 0 mm | - | - | - |
* Rain latest hour (hover to see other rain measurements)
** Current wind speed in m/s (hover to see current wind gust speed)